Time,TemperatureF,DewpointF,PressureIn,WindDirection,WindDirectionDegrees,WindSpeedMPH,WindSpeedGustMPH,Humidity,HourlyPrecipIn,Conditions,Clouds,dailyrainin,SoftwareType,DateUTC
2013-04-14 00:12:00,50.3,29.0,29.98,NNE,28,4.0,4.0,44,0.00,,,0.00,weatherlink.com 1.10,2013-04-14 04:12:00,
2013-04-14 00:27:00,49.7,30.0,29.98,NNE,24,3.0,4.0,47,0.00,,,0.00,weatherlink.com 1.10,2013-04-14 04:27:00,
2013-04-14 00:42:00,49.7,29.0,29.99,NNE,24,4.0,4.0,45,0.00,,,0.00,weatherlink.com 1.10,2013-04-14 04:42:00,
2013-04-14 00:57:00,49.7,29.0,29.99,NNE,22,3.0,4.0,45,0.00,,,0.00,weatherlink.com 1.10,2013-04-14 04:57:00,
2013-04-14 01:12:00,49.8,29.0,29.99,NNE,23,4.0,4.0,45,0.00,,,0.00,weatherlink.com 1.10,2013-04-14 05:12:00,
2013-04-14 01:27:00,50.2,28.0,29.99,NNE,23,4.0,4.0,43,0.00,,,0.00,weatherlink.com 1.10,2013-04-14 05:27:00,
2013-04-14 01:42:00,50.1,29.0,29.99,NE,34,2.0,6.0,45,0.00,,,0.00,weatherlink.com 1.10,2013-04-14 05:42:00,
2013-04-14 01:57:00,49.5,29.0,29.99,NE,37,1.0,4.0,45,0.00,,,0.00,weatherlink.com 1.10,2013-04-14 05:57:00,
2013-04-14 02:12:00,49.2,29.0,29.99,NE,37,3.0,4.0,45,0.00,,,0.00,weatherlink.com 1.10,2013-04-14 06:12:00,
2013-04-14 02:27:00,49.5,29.0,29.98,NNE,25,3.0,4.0,45,0.00,,,0.00,weatherlink.com 1.10,2013-04-14 06:27:00,
2013-04-14 02:42:00,49.7,29.0,29.98,NNE,30,4.0,4.0,45,0.00,,,0.00,weatherlink.com 1.10,2013-04-14 06:42:00,
2013-04-14 02:57:00,49.6,28.0,29.98,NE,36,3.0,4.0,43,0.00,,,0.00,weatherlink.com 1.10,2013-04-14 06:57:00,
2013-04-14 03:12:00,49.5,30.0,29.97,NE,36,2.0,3.0,47,0.00,,,0.00,weatherlink.com 1.10,2013-04-14 07:12:00,
2013-04-14 03:27:00,49.6,29.0,29.97,NE,36,3.0,4.0,46,0.00,,,0.00,weatherlink.com 1.10,2013-04-14 07:27:00,
2013-04-14 03:42:00,50.1,30.0,29.97,NNE,33,3.0,4.0,46,0.00,,,0.00,weatherlink.com 1.10,2013-04-14 07:42:00,
2013-04-14 03:57:00,49.9,30.0,29.97,NNE,33,1.0,3.0,47,0.00,,,0.00,weatherlink.com 1.10,2013-04-14 07:57:00,
2013-04-14 04:12:00,49.2,29.0,29.97,NNE,33,1.0,2.0,45,0.00,,,0.00,weatherlink.com 1.10,2013-04-14 08:12:00,
2013-04-14 04:27:00,49.2,32.0,29.97,NNE,33,2.0,4.0,51,0.00,,,0.00,weatherlink.com 1.10,2013-04-14 08:27:00,
2013-04-14 04:42:00,49.5,32.0,29.96,NNE,33,3.0,4.0,51,0.00,,,0.00,weatherlink.com 1.10,2013-04-14 08:42:00,
2013-04-14 04:57:00,49.0,31.0,29.97,NNE,33,3.0,3.0,51,0.00,,,0.00,weatherlink.com 1.10,2013-04-14 08:57:00,
2013-04-14 05:12:00,49.2,32.0,29.97,NNE,33,3.0,4.0,52,0.00,,,0.00,weatherlink.com 1.10,2013-04-14 09:12:00,
2013-04-14 05:27:00,48.9,32.0,29.97,NNE,33,3.0,4.0,52,0.00,,,0.00,weatherlink.com 1.10,2013-04-14 09:27:00,
2013-04-14 05:42:00,48.8,31.0,29.96,NNE,33,3.0,4.0,51,0.00,,,0.00,weatherlink.com 1.10,2013-04-14 09:42:00,
2013-04-14 05:57:00,49.4,31.0,29.96,NNE,33,2.0,4.0,49,0.00,,,0.00,weatherlink.com 1.10,2013-04-14 09:57:00,
2013-04-14 06:12:00,49.6,32.0,29.96,NNE,33,3.0,4.0,51,0.00,,,0.00,weatherlink.com 1.10,2013-04-14 10:12:00,
2013-04-14 06:27:00,48.8,32.0,29.96,NNE,33,0.0,3.0,52,0.00,,,0.00,weatherlink.com 1.10,2013-04-14 10:27:00,
2013-04-14 06:42:00,48.5,32.0,29.97,NNE,33,2.0,4.0,54,0.00,,,0.00,weatherlink.com 1.10,2013-04-14 10:42:00,
2013-04-14 06:57:00,49.0,31.0,29.98,NNE,33,3.0,4.0,50,0.00,,,0.00,weatherlink.com 1.10,2013-04-14 10:57:00,
2013-04-14 07:12:00,49.1,31.0,29.98,NNE,33,3.0,4.0,51,0.00,,,0.00,weatherlink.com 1.10,2013-04-14 11:12:00,
2013-04-14 07:27:00,49.6,32.0,29.98,NNE,33,3.0,3.0,51,0.00,,,0.00,weatherlink.com 1.10,2013-04-14 11:27:00,
2013-04-14 07:42:00,50.2,32.0,29.99,NNE,33,3.0,4.0,50,0.00,,,0.00,weatherlink.com 1.10,2013-04-14 11:42:00,
2013-04-14 07:57:00,50.3,33.0,29.99,NNE,33,2.0,2.0,52,0.00,,,0.00,weatherlink.com 1.10,2013-04-14 11:57:00,
2013-04-14 08:12:00,49.9,33.0,29.99,NNE,33,2.0,3.0,53,0.00,,,0.00,weatherlink.com 1.10,2013-04-14 12:12:00,
2013-04-14 08:27:00,50.0,33.0,29.99,NNE,33,0.0,3.0,52,0.00,,,0.00,weatherlink.com 1.10,2013-04-14 12:27:00,
2013-04-14 08:43:00,50.3,32.0,30.00,NNE,33,0.0,2.0,50,0.00,,,0.00,weatherlink.com 1.10,2013-04-14 12:43:00,
2013-04-14 08:58:00,50.7,32.0,30.00,NE,37,2.0,3.0,49,0.00,,,0.00,weatherlink.com 1.10,2013-04-14 12:58:00,
2013-04-14 09:13:00,51.9,33.0,29.99,NE,43,0.0,3.0,48,0.00,,,0.00,weatherlink.com 1.10,2013-04-14 13:13:00,
2013-04-14 09:28:00,53.4,33.0,29.99,NE,43,0.0,1.0,46,0.00,,,0.00,weatherlink.com 1.10,2013-04-14 13:28:00,
2013-04-14 09:43:00,55.7,34.0,29.99,SE,142,2.0,3.0,45,0.00,,,0.00,weatherlink.com 1.10,2013-04-14 13:43:00,
2013-04-14 09:58:00,55.9,36.0,29.99,South,169,1.0,2.0,48,0.00,,,0.00,weatherlink.com 1.10,2013-04-14 13:58:00,
2013-04-14 10:13:00,56.2,36.0,29.98,South,169,1.0,4.0,47,0.00,,,0.00,weatherlink.com 1.10,2013-04-14 14:13:00,
2013-04-14 10:28:00,56.7,35.0,29.98,SSW,198,4.0,6.0,44,0.00,,,0.00,weatherlink.com 1.10,2013-04-14 14:28:00,
2013-04-14 10:43:00,57.6,34.0,29.98,SSW,209,1.0,6.0,42,0.00,,,0.00,weatherlink.com 1.10,2013-04-14 14:43:00,
2013-04-14 10:58:00,58.9,34.0,29.98,NNW,334,2.0,4.0,40,0.00,,,0.00,weatherlink.com 1.10,2013-04-14 14:58:00,
2013-04-14 11:13:00,60.9,33.0,29.98,South,190,2.0,4.0,35,0.00,,,0.00,weatherlink.com 1.10,2013-04-14 15:13:00,
2013-04-14 11:28:00,62.1,33.0,29.98,SW,226,4.0,6.0,34,0.00,,,0.00,weatherlink.com 1.10,2013-04-14 15:28:00,
2013-04-14 11:43:00,62.6,34.0,29.99,NW,315,4.0,7.0,34,0.00,,,0.00,weatherlink.com 1.10,2013-04-14 15:43:00,
2013-04-14 11:58:00,62.4,32.0,29.99,WSW,237,4.0,13.0,32,0.00,,,0.00,weatherlink.com 1.10,2013-04-14 15:58:00,
2013-04-14 12:13:00,62.7,32.0,29.99,South,188,3.0,13.0,32,0.00,,,0.00,weatherlink.com 1.10,2013-04-14 16:13:00,
2013-04-14 12:28:00,63.1,32.0,29.99,SSE,166,1.0,11.0,31,0.00,,,0.00,weatherlink.com 1.10,2013-04-14 16:28:00,
2013-04-14 12:43:00,63.1,31.0,29.98,South,188,1.0,6.0,30,0.00,,,0.00,weatherlink.com 1.10,2013-04-14 16:43:00,
2013-04-14 12:58:00,63.0,32.0,29.98,SW,233,1.0,5.0,31,0.00,,,0.00,weatherlink.com 1.10,2013-04-14 16:58:00,
2013-04-14 13:13:00,62.8,32.0,29.98,SSW,207,4.0,7.0,31,0.00,,,0.00,weatherlink.com 1.10,2013-04-14 17:13:00,
2013-04-14 13:28:00,62.6,32.0,29.97,SW,214,5.0,7.0,32,0.00,,,0.00,weatherlink.com 1.10,2013-04-14 17:28:00,
2013-04-14 13:43:00,62.1,32.0,29.97,South,176,4.0,11.0,32,0.00,,,0.00,weatherlink.com 1.10,2013-04-14 17:43:00,
2013-04-14 13:58:00,61.5,31.0,29.98,South,186,4.0,9.0,32,0.00,,,0.00,weatherlink.com 1.10,2013-04-14 17:58:00,
2013-04-14 14:13:00,61.1,31.0,29.98,WNW,293,2.0,11.0,32,0.00,,,0.00,weatherlink.com 1.10,2013-04-14 18:13:00,
2013-04-14 14:28:00,60.5,31.0,29.97,SW,217,4.0,7.0,33,0.00,,,0.00,weatherlink.com 1.10,2013-04-14 18:28:00,
2013-04-14 14:43:00,60.0,31.0,29.97,East,85,11.0,13.0,34,0.00,,,0.00,weatherlink.com 1.10,2013-04-14 18:43:00,
2013-04-14 14:58:00,59.6,32.0,29.98,NW,311,2.0,10.0,35,0.00,,,0.00,weatherlink.com 1.10,2013-04-14 18:58:00,
2013-04-14 15:13:00,59.4,31.0,29.98,North,349,1.0,7.0,34,0.00,,,0.00,weatherlink.com 1.10,2013-04-14 19:13:00,
2013-04-14 15:28:00,58.9,32.0,29.98,SSW,208,4.0,9.0,37,0.00,,,0.00,weatherlink.com 1.10,2013-04-14 19:28:00,
2013-04-14 15:43:00,58.5,33.0,29.96,West,259,4.0,9.0,38,0.00,,,0.00,weatherlink.com 1.10,2013-04-14 19:43:00,
2013-04-14 15:58:00,58.2,34.0,29.96,North,360,2.0,5.0,40,0.00,,,0.00,weatherlink.com 1.10,2013-04-14 19:58:00,
2013-04-14 16:13:00,58.0,34.0,29.96,SSW,200,5.0,14.0,40,0.00,,,0.00,weatherlink.com 1.10,2013-04-14 20:13:00,
2013-04-14 16:28:00,57.3,34.0,29.97,NNE,24,4.0,12.0,42,0.00,,,0.00,weatherlink.com 1.10,2013-04-14 20:28:00,
2013-04-14 16:43:00,57.1,34.0,29.95,North,3,0.0,6.0,42,0.00,,,0.00,weatherlink.com 1.10,2013-04-14 20:43:00,
2013-04-14 16:58:00,57.0,33.0,29.95,West,274,4.0,15.0,40,0.00,,,0.00,weatherlink.com 1.10,2013-04-14 20:58:00,
2013-04-14 17:13:00,56.6,33.0,29.94,WNW,294,4.0,8.0,41,0.00,,,0.00,weatherlink.com 1.10,2013-04-14 21:13:00,
2013-04-14 17:29:00,56.1,33.0,29.93,SSE,162,0.0,22.0,42,0.00,,,0.00,weatherlink.com 1.10,2013-04-14 21:29:00,
2013-04-14 17:44:00,55.5,33.0,29.93,WSW,250,2.0,11.0,43,0.00,,,0.00,weatherlink.com 1.10,2013-04-14 21:44:00,
2013-04-14 17:59:00,55.0,34.0,29.92,WSW,247,11.0,17.0,45,0.00,,,0.00,weatherlink.com 1.10,2013-04-14 21:59:00,
2013-04-14 18:14:00,54.4,36.0,29.90,WSW,241,2.0,13.0,50,0.00,,,0.00,weatherlink.com 1.10,2013-04-14 22:14:00,
2013-04-14 18:29:00,54.0,37.0,29.91,WSW,240,3.0,11.0,54,0.00,,,0.00,weatherlink.com 1.10,2013-04-14 22:29:00,
2013-04-14 18:44:00,53.6,38.0,29.91,SW,216,5.0,9.0,55,0.00,,,0.00,weatherlink.com 1.10,2013-04-14 22:44:00,
2013-04-14 18:59:00,53.4,38.0,29.90,West,281,1.0,12.0,56,0.00,,,0.00,weatherlink.com 1.10,2013-04-14 22:59:00,
2013-04-14 19:14:00,53.1,38.0,29.90,SSW,195,0.0,13.0,58,0.00,,,0.00,weatherlink.com 1.10,2013-04-14 23:14:00,
2013-04-14 19:29:00,52.8,39.0,29.89,WNW,296,4.0,11.0,60,0.00,,,0.00,weatherlink.com 1.10,2013-04-14 23:29:00,
2013-04-14 19:44:00,52.3,40.0,29.89,NW,313,4.0,6.0,63,0.00,,,0.00,weatherlink.com 1.10,2013-04-14 23:44:00,
2013-04-14 19:59:00,52.1,41.0,29.89,SW,221,4.0,6.0,65,0.00,,,0.00,weatherlink.com 1.10,2013-04-14 23:59:00,
2013-04-14 20:14:00,51.9,41.0,29.90,WNW,292,5.0,6.0,67,0.00,,,0.00,weatherlink.com 1.10,2013-04-15 00:14:00,
2013-04-14 20:29:00,51.8,41.0,29.89,NNW,340,3.0,6.0,68,0.00,,,0.00,weatherlink.com 1.10,2013-04-15 00:29:00,
2013-04-14 20:44:00,51.6,42.0,29.90,East,93,2.0,7.0,69,0.00,,,0.00,weatherlink.com 1.10,2013-04-15 00:44:00,
2013-04-14 20:59:00,51.4,42.0,29.91,NW,304,0.0,5.0,70,0.00,,,0.00,weatherlink.com 1.10,2013-04-15 00:59:00,
2013-04-14 21:14:00,50.1,44.0,29.91,West,266,2.0,7.0,78,0.01,,,0.01,weatherlink.com 1.10,2013-04-15 01:14:00,
2013-04-14 21:29:00,49.1,44.0,29.91,West,278,4.0,5.0,81,0.02,,,0.02,weatherlink.com 1.10,2013-04-15 01:29:00,
2013-04-14 21:44:00,48.3,44.0,29.91,WSW,257,3.0,6.0,85,0.03,,,0.03,weatherlink.com 1.10,2013-04-15 01:44:00,
2013-04-14 21:59:00,48.3,44.0,29.92,North,353,0.0,6.0,84,0.03,,,0.03,weatherlink.com 1.10,2013-04-15 01:59:00,
2013-04-14 22:14:00,48.3,44.0,29.92,SW,231,0.0,5.0,85,0.03,,,0.04,weatherlink.com 1.10,2013-04-15 02:14:00,
2013-04-14 22:29:00,47.8,44.0,29.91,WSW,237,0.0,2.0,87,0.02,,,0.04,weatherlink.com 1.10,2013-04-15 02:29:00,
2013-04-14 22:44:00,47.4,44.0,29.91,WNW,299,0.0,2.0,89,0.01,,,0.04,weatherlink.com 1.10,2013-04-15 02:44:00,
2013-04-14 22:59:00,47.0,44.0,29.91,WNW,287,0.0,3.0,90,0.02,,,0.05,weatherlink.com 1.10,2013-04-15 02:59:00,
2013-04-14 23:14:00,46.9,45.0,29.91,WNW,287,0.0,0.0,92,0.01,,,0.05,weatherlink.com 1.10,2013-04-15 03:14:00,
2013-04-14 23:29:00,46.7,45.0,29.90,WNW,287,0.0,1.0,94,0.01,,,0.05,weatherlink.com 1.10,2013-04-15 03:29:00,
2013-04-14 23:44:00,46.5,45.0,29.89,WNW,287,0.0,1.0,95,0.02,,,0.06,weatherlink.com 1.10,2013-04-15 03:44:00,
2013-04-14 23:59:00,46.4,45.0,29.89,WNW,287,1.0,2.0,95,0.01,,,0.06,weatherlink.com 1.10,2013-04-15 03:59:00,